Tracking 19224 objects as of 22-Jul-2018
HD Live streaming from Space Station
objects crossing your sky now

FLOCK 3P 75

Track FLOCK 3P 75 now!
10-day predictions
FLOCK 3P 75 is classified as:


NORAD ID: 41979
Int'l Code: 2017-008AH
Perigee: 494.6 km
Apogee: 504.3 km
Inclination: 97.5 °
Period: 94.5 minutes
Semi major axis: 6870 km
RCS: Unknown
Launch date: February 15, 2017
Source: United States (US)
Launch site: SRIHARIKOTA (SRI)
aabbcc
Your satellite tracking list
Your tracking list is empty




NASA's NSSDC Master Catalog

Two Line Element Set (TLE):
1 41979U 17008AH  18203.12631117  .00001617  00000-0  68725-4 0  9999
2 41979  97.4505 267.9684 0007017 223.0760 136.9929 15.24494678 79420
Source of the keplerian elements: AFSPC